Regional Weather Roundup
Issued by NWS

Home | Current Version | Previous Version | Graphics & Text | Print | Product List | Glossary On
Versions: 1 2 3 4 5 6 7 8 9 10 11 12 13 14 15 16 17 18 19 20 21 22 23 24 25 26 27 28 29 30 31 32 33 34 35 36 37 38 39 40 41 42 43 44 45 46 47 48 49 50
000
ASUS43 KFSD 241510
RWRSD

WEATHER ROUNDUP FOR SOUTH DAKOTA
NATIONAL WEATHER SERVICE SIOUX FALLS SD
900 AM CST FRI FEB 24 2017

NOTE: "FAIR" INDICATES FEW OR NO CLOUDS BELOW 12,000 FEET WITH NO
SIGNIFICANT WEATHER AND/OR OBSTRUCTIONS TO VISIBILITY.


SDZ001>005-009-010-012>017-241600-
NORTHWEST AND NORTH CENTRAL SOUTH DAKOTA

CITY           SKY/WX    TMP DP  RH WIND       PRES   REMARKS
BUFFALO          N/A     16  12  84 SE3       30.01R
FAITH            N/A     17  14  88 N5        30.10R WCI  10
MOBRIDGE       CLOUDY    21  13  71 NW7       30.09R WCI  12
$$

SDZ012>016-024>037-041>051-057-063-072>074-241600-
SOUTHWEST AND SOUTH CENTRAL SOUTH DAKOTA

CITY           SKY/WX    TMP DP  RH WIND       PRES   REMARKS
RAPID CTY ARPT CLOUDY    17  14  88 N7        30.07R WCI   8
PIERRE         CLOUDY    21  15  78 N12       30.11R WCI   9
CUSTER         FLURRIES  14  10  84 NE7       29.90R WCI   4
ELLSWORTH AFB  FLURRIES  18  14  86 N6        30.06  WCI   9
PHILIP         CLOUDY    21  11  65 NE9       30.12R WCI  11
PINE RIDGE     LGT SNOW  20  17  88 NE13      30.03S FOG     WCI   7
SPEARFISH      FAIR      14  12  92 NE6       30.02R WCI   5
WINNER         FAIR      21  13  71 N14       30.07R WCI   8
$$

SDZ004>011-016>023-039-040-241600-
NORTHEAST SOUTH DAKOTA

CITY           SKY/WX    TMP DP  RH WIND       PRES   REMARKS
ABERDEEN       CLOUDY    21  12  68 N17       30.08S WCI   7
WATERTOWN      CLOUDY    19   9  65 N25G32    29.97R WCI   1
BROOKINGS      CLOUDY    19  11  70 N25       29.93R WCI   1
SISSETON         N/A     20  13  74 N22       30.05S WCI   3
$$

SDZ017-020-022-023-036>040-048>070-241600-
SOUTHEAST SOUTH DAKOTA

CITY           SKY/WX    TMP DP  RH WIND       PRES   REMARKS
SIOUX FALLS    CLOUDY    21  15  78 N17G24    29.92R WCI   7
HURON          CLOUDY    21  14  74 N21G26    30.05R WCI   5
CHAMBERLAIN    CLOUDY    23  16  75 N18G25    30.07R WCI   9
MITCHELL       CLOUDY    23  15  71 N22G29    30.02R WCI   8
YANKTON        CLOUDY    21  12  68 N23       29.94R WCI   5
$$

ABBREVIATIONS USED IN REMARKS
   TC - TEMPERATURE IN CELSIUS
  WCI - WIND CHILL INDEX
   HX - HEAT INDEX
  VSB - VISIBILITY





USA.gov is the U.S. government's official web portal to all federal, state and local government web resources and services.